Simultaneous Nadir Overpasses (SNOs) Predictions

Prediction of SNOs between GOES-17 and METOP-C Satellite Orbit:

Table of predicted SNOs for the next 14.0 days since TLE Epoch: 9/28/2024
Index Date Time (GOES-17) GOES-17 Lat,Lon METOP-C Lat,Lon Distance(km) Time Diff (sec)
1 09/28/2024 04:35:42 -0.00,-104.67 -0.27,-105.79 128.58 80
2 09/29/2024 04:12:24 0.01,-104.67 0.88,-100.81 440.53 80
3 09/30/2024 16:31:15 -0.01,-104.73 0.15,-105.36 72.22 80
4 10/01/2024 16:13:17 -0.01,-104.74 -1.01,-100.38 497.43 80
5 10/03/2024 04:32:17 0.01,-104.69 -0.04,-104.97 31.83 80
6 10/05/2024 16:30:29 -0.02,-104.75 -0.07,-104.53 24.90 80
7 10/08/2024 04:26:10 0.01,-104.70 0.15,-104.13 65.25 80
8 10/09/2024 16:45:00 -0.01,-104.75 0.89,-108.68 448.14 80
9 10/10/2024 16:27:00 -0.01,-104.75 -0.25,-103.68 121.32 80
